STARLINK-4048 (52839 NORAD) Tracking and Keplerian Element Data

This shows tracking and keplerian element data for the satellite.

Feedback or suggestion? Click here.




ElementValue
Catalog52839
NameSTARLINK-4048
Epoch Orbit1614
Epoch Day270.25001157
Epoch Year2022
RAAN287.966
Inclination53.2172
Eccentricity0.0002327
Argument of Perigee39.6717
Mean Anonmoly318.7215
Mean Motion15.0883519
Decay Rate-0.00022281
L11 52839U 22062K 22270.25001157 -.00022281 00000+0 -13863-2 0 9992
L22 52839 53.2172 287.9660 0002327 39.6717 318.7215 15.08835190 16143

Live tracking and technical data element details for STARLINK-4048 (NORAD 52839). STARLINK-4048 can be tracked NOW for your location showing map with azimuth and elevation plus other details from your city location.

Track the satellite on the map from your city or location and see movement details for azimuth, elevation, latitude, longitude, range, height, and movement on the map or in text.







IsCatalogInMostPopularTable: catalog: 52839, numindb: 4
Update: records affected: 1



GetName: 52839 STARLINK-4048

Hit Count: updated at: Thu, 06 Oct 2022 03:31:47 GMT